Regional Weather Roundup
Issued by NWS

Current Version | Previous Version | Text Only | Print | Product List | Glossary On
Versions: 1 2 3 4 5 6 7 8 9 10 11 12 13 14 15 16 17 18 19 20 21 22 23 24 25 26 27 28 29 30 31 32 33 34 35 36 37 38 39 40 41 42 43 44 45 46 47 48 49 50
667
ASUS42 KTBW 202016
RWRFL
FLORIDA REGIONAL WEATHER ROUNDUP
NATIONAL WEATHER SERVICE TAMPA BAY RUSKIN FL
300 PM EST MON FEB 20 2017

NOTE: "FAIR" INDICATES FEW OR NO CLOUDS BELOW 12,000 FEET WITH NO
SIGNIFICANT WEATHER AND/OR OBSTRUCTIONS TO VISIBILITY.

FLZ001>010-012>015-112-114-115-202100-
PANHANDLE FLORIDA

CITY           SKY/WX    TMP DP  RH WIND       PRES   REMARKS
PENSACOLA      SUNNY     75  62  64 SE9       30.08F
PENSACOLA NAS  SUNNY     73  64  73 SE9       30.08F
MILTON NAS     LGT RAIN  78  57  48 S12       30.08
CRESTVIEW      SUNNY     79  54  41 S8        30.10S
DUKE FIELD     FAIR      78  56  47 S12       30.08F
VALPARAISO     PTSUNNY   74  62  65 SE12      30.10S
TRI COUNTY     FAIR      81  56  42 SE7       30.08F
PANAMA CITY    FAIR      76  61  59 S15       30.09S
TYNDALL AFB    SUNNY     75  61  62 S14       30.09F
APALACHICOLA   SUNNY     74  60  61 SE9       30.09F

STATION/POSITION SKY/WX   TEMP    WIND        PRES    WAVE   SWELL
                          AIR SEA DIR/SP/G            HT/PER HT/PER
                          (F)     (DEG/KT/KT) (MB)    (FT/S) (FT/S)
30.1N   87.6W              69 69  100/  8/ 10 1018.5F   2/ 6   2/ 6
28.8N   86.0W              71 70              1018.5F   2/ 3
PANAMA CITY BEAC           69     160/ 10/ 11 1019.4F
TOWER C                    67     120/  7/  7 1019.8F
28.5N   84.5W              70 70  130/  8/ 10 1018.8F   2/ 3   2/ 7

$$
FLZ011-016>038-118-127-128-134-139-239-202100-
NORTH FLORIDA

CITY           SKY/WX    TMP DP  RH WIND       PRES   REMARKS
MARIANNA       SUNNY     81  53  37 E5        30.07F
TALLAHASSEE    PTSUNNY   80  54  40 E3        30.08F
PERRY          SUNNY     82  54  37 SE8       30.09F
CROSS CITY     SUNNY     82  55  39 E7        30.08F
LAKE CITY      FAIR      79  54  41 SE5       30.10S
GAINESVILLE    SUNNY     81  53  37 E9        30.09F
WILLISTON      SUNNY     84  55  37 VRB6      30.09R
PALATKA        FAIR      81  55  41 NE7       30.10S
MAYPORT NAS    MOSUNNY   70  62  76 NE9       30.13F
JACKSONVILLE   PTSUNNY   76  54  46 NE10      30.11F
JAX NAS        PTSUNNY   77  52  41 VRB6      30.12F
FERNANDINA BEA FAIR      72  61  68 E10       30.12F
ST AUGUSTINE   MOSUNNY   74  58  57 E9        30.13F
PALM COAST     SUNNY     77  55  47 E10       30.11F

STATION/POSITION SKY/WX   TEMP    WIND        PRES    WAVE   SWELL
                          AIR SEA DIR/SP/G            HT/PER HT/PER
                          (F)     (DEG/KT/KT) (MB)    (FT/S) (FT/S)
SHELL POINT      NOT AVBL
KEATON BEACH               68     210/  8/ 10 1019.0F
CEDAR KEY                  72     240/  3/  5 1019.3F
FERNANDINA                 71 66   60/  6/ 10 1021.1F
30.7N   81.3W                 65                N/A     1/ 5
MAYPORT                    67 65   60/  8/  8 1020.5F
31.4N   80.9W              63 63   30/  6/  8 1020.8    1
ST AUGUSTINE               67 69   30/  8/  8 1020.8F

$$
FLZ040-043>046-052-053-057-058-063-144-202100-
INTERIOR CENTRAL FLORIDA

CITY           SKY/WX    TMP DP  RH WIND       PRES   REMARKS
OCALA          SUNNY     81  54  39 S9        30.10S
THE VILLAGES     N/A     81  64  57 SE5       29.99F
LEESBURG       SUNNY     81  55  40 S5        30.09F
SANFORD        MOSUNNY   81  54  39 VRB5      30.09S
ORLANDO EXEC   SUNNY     82  54  37 VRB5      30.08F
ORLANDO INTL   MOSUNNY   83  54  36 E9        30.08F
KISSIMMEE      SUNNY     82  55  39 SE8       30.09F
WINTER HAVEN   SUNNY     81  52  36 E7        30.09F
LAKELAND       SUNNY     81  54  39 E10       30.08F
BARTOW         SUNNY     81  52  36 E10       30.08F
OKEECHOBEE     CLOUDY    79  61  53 E6        30.08S

$$
FLZ041-047-054-059-064-141-147-202100-
EAST CENTRAL FLORIDA

CITY           SKY/WX    TMP DP  RH WIND       PRES   REMARKS
ORMOND BEACH   SUNNY     75  61  60 E7        30.11S
DAYTONA BEACH  MOSUNNY   77  60  55 NE12      30.11S
DELAND         SUNNY     81  55  41 E8        30.09S
NEW SMYRNA BEA MOSUNNY   72  63  73 NE13      30.12S
JFK SPACE CTR  SUNNY     76  65  69 NE10      30.10S
TITUSVILLE     MOSUNNY   77  59  53 NE12      30.11F
CAPE CANAVERAL SUNNY     77  65  65 NE10      30.09F
PATRICK AFB    SUNNY     75  67  75 NE13      30.10S
MELBOURNE      SUNNY     77  65  66 NE12      30.10S
VERO BEACH     SUNNY     78  64  61 NE9G18    30.10S
FT PIERCE      SUNNY     78  64  61 E10       30.09S
STUART         MOSUNNY   81  64  57 NE12      30.10F

STATION/POSITION SKY/WX   TEMP    WIND        PRES    WAVE   SWELL
                          AIR SEA DIR/SP/G            HT/PER HT/PER
                          (F)     (DEG/KT/KT) (MB)    (FT/S) (FT/S)
TRIDENT PIER               77 71   50/  7/ 11 1020.5F
28.4N   80.5W                 72                N/A     2/ 5
27.5N   80.2W                 73                N/A     2/ 6

$$
FLZ050-056-061-142-242-148-248-149-249-151-251-155-255-
160-260-202100-
WEST CENTRAL FLORIDA

CITY           SKY/WX    TMP DP  RH WIND       PRES   REMARKS
CRYSTAL RIVER  FAIR      81  54  39 CALM      30.08F
INVERNESS      FAIR      81  57  44 E3        30.09S
BROOKSVILLE    SUNNY     82  54  37 MISG      30.08F
CLEARWATER AIR FAIR      79  54  41 SE5       30.07F
ST PETE CLEARW SUNNY     81  56  42 NE6       30.07F
TAMPA INTL     MOSUNNY   81  60  48 SW12      30.07F
TAMPA EXEC     SUNNY     86  54  32 E5        30.08F
PLANT CITY     SUNNY     84  57  39 E7        30.09F
MACDILL AFB    SUNNY     84  57  40 SW7       30.07F HAZE
PETER O KNIGHT SUNNY     82  59  44 SW3       30.07F
ST PETERSBURG  SUNNY     77  63  61 NE6       30.06F
SARASOTA       SUNNY     77  61  57 W13       30.06S
VENICE         FAIR      77  66  69 W9        30.07S

STATION/POSITION SKY/WX   TEMP    WIND        PRES    WAVE   SWELL
                          AIR SEA DIR/SP/G            HT/PER HT/PER
                          (F)     (DEG/KT/KT) (MB)    (FT/S) (FT/S)
27.3N   84.2W                 72                N/A     2/ 4
CLEARWATER BEACH           70 75  280/  8/  8 1018.7F
MIDDLE TAMPA BAY           73     350/  6/  7 1018.5F
VENICE                     73 71  260/  8/  9 1017.6F

$$
FLZ066-069-070-075>078-162-262-165-265-202100-
SOUTHWEST FLORIDA AND KEYS

CITY           SKY/WX    TMP DP  RH WIND       PRES   REMARKS
PUNTA GORDA    SUNNY     86  53  32 SE9       30.06F
FT MYERS       SUNNY     87  53  31 E6        30.04F
SOUTHWEST INTL SUNNY     85  53  33 E10       30.05F
NAPLES         MOSUNNY   80  64  58 SW10      30.05F
MARCO ISLAND   SUNNY     86  55  35 SW6       30.05F
MARATHON       SUNNY     80  64  58 E10G20    30.06F
KEY WEST NAS   SUNNY     79  66  64 E16       30.06F
KEY WEST INTL  SUNNY     81  67  62 E15       30.06F

STATION/POSITION SKY/WX   TEMP    WIND        PRES    WAVE   SWELL
                          AIR SEA DIR/SP/G            HT/PER HT/PER
                          (F)     (DEG/KT/KT) (MB)    (FT/S) (FT/S)
NAPLES                        74              1017.7F
26.0N   85.6W              75 75  120/ 12/ 14 1017.9F   3/ 4   2/ 6
DRY TORTUGAS               74     110/  7/  8 1017.9F
SAND KEY                   76     100/ 14/ 16 1018.4F
LONG KEY                   76 78   90/ 12/ 15 1018.6F
MOLASSES REEF              75 77   90/ 13/ 14 1018.4F

$$
FLZ067-068-071>074-168-172>174-202100-
SOUTHEAST FLORIDA

CITY           SKY/WX    TMP DP  RH WIND       PRES   REMARKS
W PALM BEACH   PTSUNNY   77  60  55 NE10      30.09S
BOCA RATON     MOSUNNY   81  63  54 E10G20      N/A
FT LAUDER-EXEC MOSUNNY   81  60  48 E12       30.07F
FT LAUDERDALE  MOSUNNY   79  62  56 E15       30.06F
POMPANO BEACH  MOSUNNY   80  62  54 E15       30.07F
PEMBROKE PINES MOSUNNY   81  61  50 E13       30.08F
OPA LOCKA      MOSUNNY   81  61  50 E9        30.07F
MIAMI          PTSUNNY   75  61  61 E9        30.07F
WEST KENDALL   PTSUNNY   81  61  50 SE12      30.06F
HOMESTEAD      SUNNY     78  66  68 E9        30.06F

STATION/POSITION SKY/WX   TEMP    WIND        PRES    WAVE   SWELL
                          AIR SEA DIR/SP/G            HT/PER HT/PER
                          (F)     (DEG/KT/KT) (MB)    (FT/S) (FT/S)
PORT EVERGLADES            76      70/  8/ 12 1018.3F
VIRGINIA KEY               75 82   80/  9/ 12 1018.5F
LAKE WORTH                 75      60/ 10/ 14 1019.4F
FOWEY ROCKS                75 77   60/ 11/ 13 1018.7F

$$





USA.gov is the U.S. government's official web portal to all federal, state and local government web resources and services.